Budapest Ferihegy, Hungary

4:33 AM CEST on September 23, 2017 (GMT +0200)
Ferihegy

Weather History for LHBP - March, 2014

Change the Weather History Date:

Sunday, March 16, 2014

  Actual Average Record
Temperature  
Mean Temperature 48 °F -  
Max Temperature 57 °F 54 °F 62 °F (2008)
Min Temperature 39 °F 35 °F 15 °F (1998)
Degree Days  
Heating Degree Days 17    
Moisture  
Dew Point 39 °F    
Average Humidity 68    
Maximum Humidity 87    
Minimum Humidity 58    
Precipitation  
Precipitation 0.00 in - - ()
Sea Level Pressure  
Sea Level Pressure 29.76 in    
Wind  
Wind Speed 17 mph ()    
Max Wind Speed 36 mph    
Max Gust Speed 58 mph    
Visibility 6.2 miles    
Events Rain    
Averages and records for this station are not official NWS values.
T = Trace of Precipitation, MM = Missing Value Source: Averaged Metar Reports

Daily Weather History Graph

Daily Weather History Graph

Search for Another Location

Airport or City:

Trip Planner

Search our weather history database for the weather conditions in past years. The results will help you decide how hot, cold, wet, or windy it might be!

Date:

Astronomy

Mar. 16, 2014 Rise Set
Actual Time 5:54 AM CET 5:49 PM CET
Civil Twilight 5:23 AM CET 6:20 PM CET
Nautical Twilight 4:48 AM CET 6:55 PM CET
Astronomical Twilight 4:11 AM CET 7:32 PM CET
Moon 5:51 PM CET (3/16) 5:28 AM CET (3/16)
Length of Visible Light 12h 56m
Length of Day
11h 55m
Full, 100% of the Moon is Illuminated
Mar 16
Full
Mar 16
Full
Mar 24
Last Quarter
Mar 30
New
Apr 7
First Quarter

Hourly Weather History & Observations

Time (CET) Temp. Windchill Dew Point Humidity Pressure Visibility Wind Dir Wind Speed Gust Speed Precip Events Conditions
12:00 AM 44.6 °F 38.8 °F 33.8 °F 66% 29.89 in 6.2 mi West 11.5 mph - N/A   Mostly Cloudy
12:30 AM 44.6 °F 39.7 °F 33.8 °F 66% 29.89 in 6.2 mi West 9.2 mph - N/A   Mostly Cloudy
1:00 AM 42.8 °F 36.2 °F 32.0 °F 66% 29.89 in - West 12.7 mph - N/A   Clear
1:30 AM 42.8 °F 40.1 °F 32.0 °F 66% 29.89 in - West 4.6 mph - N/A   Clear
2:00 AM 42.8 °F 34.8 °F 33.8 °F 70% 29.89 in - WNW 17.3 mph - N/A   Clear
2:30 AM 42.8 °F 34.8 °F 32.0 °F 66% 29.86 in - WNW 17.3 mph - N/A   Clear
3:00 AM 41.0 °F 35.8 °F 33.8 °F 76% 29.86 in - West 8.1 mph - N/A   Clear
3:30 AM 41.0 °F 36.4 °F 33.8 °F 76% 29.86 in - SW 6.9 mph - N/A   Clear
4:00 AM 41.0 °F 34.3 °F 33.8 °F 76% 29.86 in - SW 11.5 mph - N/A   Clear
4:30 AM 41.0 °F 34.7 °F 33.8 °F 76% 29.86 in 6.2 mi SSW 10.4 mph - N/A   Mostly Cloudy
5:00 AM 39.2 °F 32.5 °F 33.8 °F 81% 29.83 in 6.2 mi SW 10.4 mph - N/A   Mostly Cloudy
5:30 AM 41.0 °F 34.3 °F 35.6 °F 81% 29.83 in 6.2 mi SSW 11.5 mph - N/A   Mostly Cloudy
6:00 AM 41.0 °F 35.2 °F 35.6 °F 81% 29.80 in 6.2 mi SW 9.2 mph - N/A   Mostly Cloudy
6:30 AM 41.0 °F 35.8 °F 35.6 °F 81% 29.77 in 6.2 mi SSW 8.1 mph - N/A   Mostly Cloudy
7:00 AM 44.6 °F 37.4 °F 35.6 °F 71% 29.77 in 6.2 mi West 16.1 mph - N/A   Mostly Cloudy
7:30 AM 46.4 °F 38.7 °F 37.4 °F 71% 29.77 in 6.2 mi West 20.7 mph - N/A Rain Light Rain Showers
8:00 AM 46.4 °F 38.7 °F 37.4 °F 71% 29.77 in 6.2 mi WSW 20.7 mph - N/A Rain Light Rain Showers
8:30 AM 44.6 °F 36.1 °F 37.4 °F 76% 29.77 in 6.2 mi SW 21.9 mph - N/A Rain Light Rain Showers
9:00 AM 44.6 °F 35.7 °F 39.2 °F 81% 29.77 in 6.2 mi SW 24.2 mph - N/A Rain Light Rain Showers
9:30 AM 46.4 °F 38.1 °F 39.2 °F 76% 29.77 in 6.2 mi SW 24.2 mph - N/A Rain Light Rain Showers
10:00 AM 46.4 °F 38.3 °F 42.8 °F 87% 29.74 in 6.2 mi WSW 23.0 mph - N/A Rain Light Rain Showers
10:30 AM 48.2 °F - 42.8 °F 82% 29.74 in 6.2 mi WSW 21.9 mph - N/A Rain Light Rain Showers
11:00 AM 48.2 °F - 41.0 °F 76% 29.74 in 6.2 mi WSW 19.6 mph - N/A Rain Light Rain Showers
11:30 AM 48.2 °F - 42.8 °F 82% 29.71 in 6.2 mi WSW 20.7 mph - N/A Rain Light Rain Showers
12:00 PM 50.0 °F - 42.8 °F 76% 29.71 in 6.2 mi WSW 16.1 mph - N/A Rain Light Rain Showers
12:30 PM 51.8 °F - 42.8 °F 71% 29.71 in 6.2 mi West 24.2 mph - N/A   Mostly Cloudy
1:00 PM 53.6 °F - 42.8 °F 67% 29.68 in 6.2 mi West 27.6 mph 42.6 mph N/A   Mostly Cloudy
1:30 PM 55.4 °F - 41.0 °F 58% 29.68 in 6.2 mi West 26.5 mph 38.0 mph N/A   Mostly Cloudy
2:00 PM 55.4 °F - 42.8 °F 63% 29.68 in 6.2 mi West 32.2 mph 44.9 mph N/A   Mostly Cloudy
2:30 PM 57.2 °F - 42.8 °F 59% 29.65 in 6.2 mi West 34.5 mph 48.3 mph N/A   Mostly Cloudy
3:00 PM 57.2 °F - 42.8 °F 59% 29.65 in 6.2 mi West 33.4 mph 51.8 mph N/A   Mostly Cloudy
3:30 PM 55.4 °F - 42.8 °F 63% 29.65 in 6.2 mi West 29.9 mph 42.6 mph N/A   Mostly Cloudy
4:00 PM 57.2 °F - 42.8 °F 59% 29.65 in 6.2 mi West 33.4 mph 57.5 mph N/A   Mostly Cloudy
4:30 PM 57.2 °F - 42.8 °F 59% 29.65 in 6.2 mi West 27.6 mph 41.4 mph N/A   Mostly Cloudy
5:00 PM 57.2 °F - 42.8 °F 59% 29.68 in 6.2 mi West 28.8 mph - N/A   Mostly Cloudy
5:30 PM 55.4 °F - 42.8 °F 63% 29.68 in 6.2 mi West 29.9 mph - N/A   Mostly Cloudy
6:00 PM 57.2 °F - 42.8 °F 59% 29.71 in 6.2 mi West 29.9 mph 41.4 mph N/A   Mostly Cloudy
6:30 PM 57.2 °F - 42.8 °F 59% 29.71 in 6.2 mi WNW 31.1 mph - N/A   Mostly Cloudy
7:00 PM 57.2 °F - 42.8 °F 59% 29.71 in 6.2 mi WNW 28.8 mph - N/A   Mostly Cloudy
7:30 PM 57.2 °F - 42.8 °F 59% 29.74 in 6.2 mi WNW 33.4 mph 44.9 mph N/A   Mostly Cloudy
8:00 PM 57.2 °F - 42.8 °F 59% 29.74 in 6.2 mi West 31.1 mph - N/A   Mostly Cloudy
8:30 PM 57.2 °F - 42.8 °F 59% 29.74 in 6.2 mi West 28.8 mph 41.4 mph N/A   Mostly Cloudy
9:00 PM 57.2 °F - 42.8 °F 59% 29.74 in 6.2 mi WNW 32.2 mph 44.9 mph N/A   Mostly Cloudy
9:30 PM 57.2 °F - 42.8 °F 59% 29.77 in 6.2 mi WNW 35.7 mph - N/A   Mostly Cloudy
10:00 PM 57.2 °F - 42.8 °F 59% 29.80 in 6.2 mi WNW 33.4 mph - N/A   Mostly Cloudy
10:30 PM 55.4 °F - 44.6 °F 67% 29.80 in 6.2 mi WNW 25.3 mph - N/A   Mostly Cloudy
11:00 PM 57.2 °F - 42.8 °F 59% 29.80 in 6.2 mi WNW 27.6 mph - N/A   Mostly Cloudy
11:30 PM 55.4 °F - 42.8 °F 63% 29.83 in 6.2 mi West 24.2 mph 35.7 mph N/A   Mostly Cloudy